{"data":{"norad_id":58089,"intl_designator":"2023-160Q","name":"STARLINK-30584","alt_names":[],"object_type":"PAYLOAD","status":"ACTIVE","operator":null,"country":"US","launch_date":"2023-10-18","launch_site_code":"AFETR","launch_vehicle":null,"mission":null,"orbit_class":"UNKNOWN","rcs_meters":null,"size_class":null,"mass_kg":null,"dimensions":null,"purposes":["comms"],"wikipedia_slug":null,"has_3d_model":false,"image_url":null,"decayed_at":null,"tle_current":{"epoch":"2026-05-24T23:20:22.185600Z","epoch_age_seconds":80937,"freshness":"FRESH","line1":"1 58089U 23160Q   26144.97247900 -.00000289  00000+0 -99157-6 0  9994","line2":"2 58089  43.0038   6.9602 0001223 273.9091  86.1620 15.27577498144616","mean_motion":15.27577498,"eccentricity":0.0001223,"inclination_deg":43.0038,"raan_deg":6.9602,"arg_perigee_deg":273.9091,"mean_anomaly_deg":86.162,"bstar":-9.9157e-7,"rev_number":14461,"period_min":94.266903111976,"perigee_km":482.21746396216,"apogee_km":483.89571191377,"semimajor_km":6861.193587938,"source":"CELESTRAK","updated_at":"2026-05-25T13:38:18.524020Z"}}}